AirNav   Everest Fuels
 
 534 users online  

CD40 Hilltop Heliport
Franktown, Colorado, USA

GOING TO FRANKTOWN?


FAA INFORMATION EFFECTIVE 10 SEPTEMBER 2020

Location

FAA Identifier: CD40
Lat/Long: 39-25-45.9580N 104-39-31.8980W
39-25.765967N 104-39.531633W
39.4294328,-104.6588606
(estimated)
Elevation: 6737 ft. / 2053 m (estimated)
Variation: 11E (1985)
From city: 5 miles NE of FRANKTOWN, CO
Time zone: UTC -6 (UTC -7 during Standard Time)
Zip code: 80107

Heliport Operations

Heliport use: Private use. Permission required prior to landing
Activation date: 02/1988
Control tower: no
ARTCC: DENVER CENTER
FSS: DENVER FLIGHT SERVICE STATION
Attendance: UNATNDD
Segmented circle: no

Heliport Communications

WX ASOS at APA (12 nm NW): PHONE 720-873-2799

Nearby radio navigation aids

VOR radial/distance  VOR name  Freq  Var
FQFr175/15.7FALCON VORTAC116.3011E
DENr172/23.0DENVER VOR/DME117.9008E
DVVr175/28.0MILE HIGH VORTAC114.7008E
BRKr350/29.1BLACK FOREST VOR/DME112.5008E
BJCr132/36.5JEFFCO VOR/DME115.4011E

Heliport Services

Runway Information

Helipad H1

Dimensions: 100 x 100 ft. / 30 x 30 m
Surface: turf
Traffic pattern: leftleft

Heliport Ownership and Management from official FAA records

Ownership: Privately-owned
Owner: CENTURYLINK
9666 METRO AIRPORT AVE
BROOMFIELD, CO 80012
Phone (303) 643-4972
Manager: DARREN ALMSKOG
9666 METRO AIRPORT AVE
BROOMFIELD, CO 80012
Phone (303) 304-9960
LYLE BORDERS 303-643-4963

Additional Remarks

FOR CD CTC DENVER APCH AT 303-342-1916.

Instrument Procedures

There are no published instrument procedures at CD40.

Some nearby airports with instrument procedures:

KAPA - Centennial Airport (12 nm NW)
KBKF - Buckley Air Force Base (17 nm N)
KCFO - Colorado Air and Space Port Airport (22 nm N)
KDEN - Denver International Airport (26 nm N)
KBJC - Rocky Mountain Metropolitan Airport (36 nm NW)
 
Loc | Ops | Rwys | IFR | FBO | Links
Com | Nav | Svcs | Stats | Notes

AirBoss

 
Area around CD40 (Hilltop Heliport)
 
Road maps at: MapQuest Bing Google
 
Aerial photo
No photo
 
Sectional chart

 
Airport distance calculator
Flying to Hilltop Heliport? Find the distance to fly.

From to CD40

Sunrise and sunset
Times for 24-Sep-2020
 Local
(UTC-6)
 Zulu
(UTC)
Morning civil twilight06:2312:23
Sunrise06:5012:50
Sunset18:5100:51
Evening civil twilight19:1701:17

Current date and time
Zulu (UTC)  24-Sep-2020 09:13:08
Local (UTC-6)  24-Sep-2020 03:13:08
 
METAR
KAPA 
12nm NW 
240853Z 21004KT 10SM SCT220 13/M01 A3017 RMK AO2 SLP152 T01331006 58006
KMNH 
13nm S 
240855Z AUTO 23008KT 10SM CLR 11/01 A3026 RMK AO2
KBKF 
18nm N 
240858Z 20008KT 10SM SCT220 14/00 A3015 RMK AO2A SLP137 T01390002 57007
KCFO 
22nm N 
240248Z 00000KT 10SM FEW120 22/01 A3017
TAF
KAPA 
12nm NW 
240545Z 2406/2506 19005KT P6SM FEW120 BKN220 FM241800 15008KT P6SM FEW120 FM250200 21011KT P6SM FEW120
KBKF 
18nm N 
240234Z 2402/2507 23006KT 9999 CLR QNH2998INS BECMG 2500/2501 14003KT 9999 FEW090 SCT200 QNH3001INS TX29/2421Z TN12/2412Z
NOTAMs
Click for the latest NOTAMs
NOTAMs are issued by the DoD/FAA and will open in a separate window not controlled by AirNav.

 

 
 

Would you like to see your business listed on this page?

 If your business provides an interesting product or service to pilots, flight crews, aircraft, or users of the Hilltop Heliport, you should consider listing it here.  To start the listing process, click on the button below
 
Add a business
 

Other Pages about Hilltop Heliport

Update a link
 
Copyright © AirNav, LLC. All rights reserved. Privacy Policy  Contact